User: anonymous   Login
Location: Washington
(38.8950°N, 77.0370°W)
Time: 20:53:48
(UTC-04:00)
Language:

IDEFIX/ARIANE 42P - Orbit

View from above orbital plane
View from above orbital plane
View from above satellite
View from above satellite

Ground track
Ground track

The orbit data is extracted from the following two-line orbital elements,

1 27422U 02021B   17113.90416111 +.00000004 +00000-0 +17328-4 0  9997
2 27422 098.2299 117.1812 0013170 042.3360 317.8837 14.29252543780817
Epoch (UTC): 23 April 2017 21:41:59
Eccentricity: 0.0013170
inclination: 98.2299°
perigee height: 785 km
apogee height: 803 km
right ascension of ascending node: 117.1812°
argument of perigee: 42.3360°
revolutions per day: 14.29252543
mean anomaly at epoch: 317.8837°
orbit number at epoch: 78081

The dashed part of the orbit path shows where the satellite is in the earth's shadow,  

DLR